Volver al catálogo

SL-8 R/B

ActivoPO
NORAD 8874·ROCKET BODY·🇷🇺 Russia

Lanzado Jun 2, 1976 desde Plesetsk Cosmodrome

Loading…

Próximos Pases (próximas 24 horas)

TLE

ActualizadoSource: Space-Track

Época: Sep 14, 2026, 14:57 UTC

1 08874U 76051B   26257.62356750  .00000007  00000-0 -82654-5 0  9990
2 08874  82.9596  28.2342 0023036 229.9496 129.9641 13.75293531522239

Sigue SL-8 R/B en tiempo real con AllMySat

Download on the App Store